TDRS 3 1 19548U 88091B 25111.22537441 -.00000294 00000-0 00000+0 0 9996 2 19548 12.9252 343.8082 0038720 346.8901 270.9005 1.00279854121136 HST 1 20580U 90037B 25110.12898456 .00010160 00000-0 39258-3 0 9994 2 20580 28.4676 78.2549 0002049 167.9889 192.0754 15.24538580723818 TDRS 5 1 21639U 91054B 25110.46599611 .00000097 00000-0 00000-0 0 9996 2 21639 14.1227 356.8790 0003658 29.2155 211.3876 0.99954698123478 TDRS 6 1 22314U 93003B 25110.07683595 -.00000288 00000-0 00000-0 0 9998 2 22314 14.1730 0.1750 0007322 168.6460 21.3951 1.00273922118162 TDRS 7 1 23613U 95035B 25110.95788933 -.00000196 00000-0 00000+0 0 9994 2 23613 13.5535 351.0957 0027980 70.2200 217.5498 1.00276801108916 ISS (ZARYA) 1 25544U 98067A 25111.19301809 .00019709 00000-0 35505-3 0 9998 2 25544 51.6358 229.3307 0005376 59.9494 300.2027 15.49781560506323 LANDSAT 7 1 25682U 99020A 25110.89565703 .00000902 00000-0 18322-3 0 9995 2 25682 97.8661 128.9726 0001542 78.9924 352.8870 14.63357210384075 TERRA 1 25994U 99068A 25111.17562649 .00000908 00000-0 19578-3 0 9991 2 25994 98.0026 171.0647 0003636 111.1489 332.9537 14.60636973348119 TDRS 8 1 26388U 00034A 25110.49496375 .00000103 00000-0 00000-0 0 9994 2 26388 12.0255 34.7837 0004911 268.9781 275.7304 1.00266126 90946 EO 1 1 26619U 00075A 25110.81818308 .00001648 00000-0 29406-3 0 9995 2 26619 98.0623 67.1591 0010045 35.0329 325.1535 14.68267817584590 TIMED 1 26998U 01055B 25111.16416706 .00002686 00000-0 25689-3 0 9991 2 26998 74.0718 3.7621 0002097 270.2656 89.8288 14.93782140267915 TDRS 9 1 27389U 02011A 25110.90600193 .00000076 00000-0 00000+0 0 9992 2 27389 11.2732 50.9565 0001648 97.3980 88.7539 0.98979476 86094 AQUA 1 27424U 02022A 25111.18042603 .00001987 00000-0 41360-3 0 9991 2 27424 98.3735 68.8344 0001092 108.6158 21.3023 14.61159323221663 TDRS 10 1 27566U 02055A 25110.86893387 -.00000153 00000-0 00000+0 0 9998 2 27566 9.7359 48.1802 0007978 285.2436 84.5201 1.00672952 81994 SORCE 1 27651U 03004A 25110.58890586 .00005136 00000-0 41466-3 0 9995 2 27651 39.9904 146.2418 0019445 253.7144 106.1510 15.00099262208347 AURA 1 28376U 04026A 25110.92323706 .00001806 00000-0 38371-3 0 9999 2 28376 98.2902 60.6449 0001349 92.2755 267.8599 14.60299671104561 SWIFT 1 28485U 04047A 25110.11937929 .00031598 00000-0 85363-3 0 9996 2 28485 20.5537 118.3234 0005582 327.3552 32.6542 15.35879787121141 THEMIS A 1 30580U 07004A 25109.71534628 -.00000083 00000-0 00000-0 0 9992 2 30580 4.9867 228.2998 8453153 31.3889 358.1508 0.87837867 37557 THEMIS D 1 30797U 07004D 25110.81605788 -.00000045 00000-0 00000+0 0 9998 2 30797 0.7804 152.9951 8420372 110.9074 335.0844 0.87835901 61787 THEMIS E 1 30798U 07004E 25110.74777990 -.00000062 00000-0 00000-0 0 9996 2 30798 2.5248 269.4958 8413272 355.1956 326.1867 0.87836913 62190 GLAST 1 33053U 08029A 25110.71411877 .00005586 00000-0 23133-3 0 9997 2 33053 25.5820 250.7885 0009669 37.5505 322.5706 15.20840056931388 TDRS 11 1 39070U 13004A 25110.76086670 .00000087 00000-0 00000-0 0 9991 2 39070 2.9799 21.7381 0005039 25.5095 261.6011 1.00279462 42455 TDRS 12 1 39504U 14004A 25110.88144463 -.00000264 00000-0 00000-0 0 9990 2 39504 3.6477 10.7264 0002030 226.6405 247.9538 1.00279856 40044 GPM 1 39574U 14009C 25110.91469604 .00012184 00000-0 26158-3 0 9991 2 39574 64.9771 282.6279 0009615 259.9597 100.0459 15.44991136632583 MMS 1 1 40482U 15011A 25111.25002315 -.00000772 00000-0 00000+0 0 9990 2 40482 62.7044 356.8112 8774156 158.1250 11.2983 0.28385915 16258 MMS 2 1 40483U 15011B 25111.25002315 -.00000772 00000-0 00000+0 0 9991 2 40483 62.6703 356.8285 8772678 158.1099 11.2687 0.28385520 16230 MMS 3 1 40484U 15011C 25111.25002315 -.00000772 00000-0 00000+0 0 9992 2 40484 62.7042 356.8142 8771790 158.1188 11.2730 0.28385593 16232 MMS 4 1 40485U 15011D 25111.25002315 -.00000772 00000-0 00000+0 0 9993 2 40485 62.6765 356.8288 8775210 158.0954 1.8403 0.28355475 16234